User: anonymous   Login
Location: Nantong Television Tower
(32.0188°N, 120.8512°E)
Time: 21:51:55
(UTC+08:00)
Language:

ATLAS 3B CENTAUR R/B - Orbit

View from above orbital plane
View from above orbital plane
View from above satellite
View from above satellite

Ground track
Ground track

The orbit data is extracted from the following two-line orbital elements,

1 28118U 03057B   17085.78591086 +.00049546 +00000-0 +70574-3 0  9994
2 28118 028.1463 346.6534 3111796 265.9763 058.5024 09.25672327282002
Epoch (UTC): 26 March 2017 18:51:42
Eccentricity: 0.3111796
inclination: 28.1463°
perigee height: 222 km
apogee height: 6185 km
right ascension of ascending node: 346.6534°
argument of perigee: 265.9763°
revolutions per day: 9.25672327
mean anomaly at epoch: 58.5024°
orbit number at epoch: 28200

The dashed part of the orbit path shows where the satellite is in the earth's shadow,  

DLR